DELTA 1 DEB, 39095

Orbit data source: Space-Track

DELTA 1 DEB, 39095 is space debris in SSO originally from a launch on Tue, 06 Nov 1973 UTC launched from the Air Force Western Test Range (AFWTR). Debris objects in space refer to the collection of defunct objects orbiting the Earth. Examples of debris include non-operational satellites, rocket bodies, and fragments generated from explosions, collisions, or faulty payload assembly.

Loading next visibility...
Identifier
39095, 1973-086HH
Orbit
SSO
Country
Flag of USUS
Related business
Manufacturer
Unknown
Mission
Spacecraft
Bus & Motor
Unknown
Mass
Unknown
Launch date (UTC)
1973-11-06 (53 years ago)
Launch vehicle
Unknown
Launch site
Air Force Western Test Range (AFWTR)
Object type
Payload
Rocket body
Debris
Shape & HBR
Unknown shape, 0.1 m
Radar Cross Section
Medium (>0.1 m² and <1 m²)

Expand to show TLE details & history
Last TLE update: 2 days ago

TLE from 2 days ago
0 DELTA 1 DEB
1 39095U 73086HH  26261.29119128 -.00000014  00000-0  26219-3 0  9999
2 39095 102.4828 279.6959 0059093  75.6398 285.1209 12.31009305588905
Epoch: 2026-09-18T06:59Z
TLE epoch observation values (Epoch: 2026-09-18T06:59:18.926Z)
Latitude
-0.00003°
Longitude
177.65086°
Altitude
1,535.508 km
Speed
7.104 km/s
True Right ascension
18h 38m 47s
True Declination
0° 00' 00"
Sunlit
Object was in daylight at epoch
Visualization orbit readout
Latitude
Unknown
Longitude
Unknown
Altitude
Unknown
Speed
Unknown
Apparent Right ascension
Unknown
Apparent Declination
Unknown
Sunlit
N/A
Visualization observer readout
Local Sidereal Time
09:46:41
Azimuth
Unknown
Elevation
Unknown
Doppler factor
Unknown
Orbital elements
Apogee altitude
1,589.369 km
Perigee altitude
1,495.757 km
Semi-major axis
7,920.7 km
Eccentricity
0.00591
Inclination
102.4828°
RAAN
279.6959°
Arg. of periapsis
75.6398°
True anomaly
284.46594°
Mean anomaly
285.1209°
Eccentric anomaly
284.79355°
Mean motion
3.07892 °/min
Orbital period
116.92 mins
BSTAR
0.00026219
Loading maneuver chart data...
Computing Atmospheric mass density...
Loading historical data...
Loading historical data...
Loading historical data...
Loading historical data...
Loading historical data...
Loading historical data...
Loading historical data...

Documentation

Showing up to 5 results
|